FENGYUN 3D

Last updated on Thu Oct 30 2025 00:02:23 GMT+0000 (Coordinated Universal Time)

1 43010U 17072A 25302.47804108 .00000164 00000+0 99498-4 0 9992 2 43010 98.9828 268.1399 0001733 24.7451 335.3807 14.19663207412251
UTC large
Height (km)
Speed (km/s)
/
Latitude / Longitude
Inclination (degrees)
Orbital Period (minutes)
Azimuth
Elevation
Range (km)
Doppler Factor

Next 0 passes for location: London (51.5072 / 0.1276)

Sorry there are no passes over London.